Regional Weather Roundup
Issued by NWS

Home | Current Version | Previous Version | Graphics & Text | Print | Product List | Glossary On
Versions: 1 2 3 4 5 6 7 8 9 10 11 12 13 14 15 16 17 18 19 20 21 22 23 24 25 26 27 28 29 30 31 32 33 34 35 36 37 38 39 40 41 42 43 44 45 46 47 48 49 50
000
ASUS43 KLOT 261503
RWRIL

ILLINOIS REGIONAL WEATHER ROUNDUP
NATIONAL WEATHER SERVICE CHICAGO/ROMEOVILLE IL
1000 AM CDT THU MAY 26 2016

NOTE: "FAIR" INDICATES FEW OR NO CLOUDS BELOW 12,000 FEET WITH NO
SIGNIFICANT WEATHER AND/OR OBSTRUCTIONS TO VISIBILITY.

* THESE STATIONS ARE NOT UNDER NWS QUALITY CONTROL. THEY ALSO MAY NOT
  REPORT WEATHER SUCH AS PRECIPITATION OR FOG.

ILZ001-002-007-009-015-016-024-261600-
NORTHWEST ILLINOIS

CITY           SKY/WX    TMP DP  RH WIND       PRES   REMARKS
MOLINE         CLOUDY    73  63  70 NW5       29.92R
STERLING*      PTSUNNY   71  63  75 W7        29.92R
$$

ILZ003-004-008-010-011-017-018-261600-
NORTH CENTRAL ILLINOIS

CITY           SKY/WX    TMP DP  RH WIND       PRES   REMARKS
ROCKFORD       CLOUDY    69  62  78 S3        29.93R
FREEPORT*      PTSUNNY   69  61  76 SW3       29.94R
ROCHELLE*      CLOUDY    72  65  81 CALM      29.92R
$$

ILZ005-006-012>014-019>023-261600-
NORTHEAST ILLINOIS

CITY           SKY/WX    TMP DP  RH WIND       PRES   REMARKS
CHICAGO-OHARE  CLOUDY    73  64  73 S9        29.88F
CHICAGO-MIDWAY CLOUDY    75  63  66 SW12      29.90F
AURORA         CLOUDY    71  64  78 W10       29.91F
LANSING*       CLOUDY    73  65  75 SW9       29.94F
WAUKEGAN       MOSUNNY   73  67  81 S6        29.89F
DUPAGE AIRPORT PTSUNNY   72  63  73 NW6       29.90F
WHEELING       MOSUNNY   74  64  71 SW5       29.91F
NORTHERLY ISL    N/A     74  63  68 SW5         N/A
NORTHERLY ISL    N/A     74  63  68 SW5         N/A
$$

LMZ740>746-261600-
SOUTHERN LAKE MICHIGAN

STATION/POSITION SKY/WX   TEMP    WIND        PRES    VSBY  WAVE
                          AIR SEA DIR/SP/G                  HT/PER
                          (F)     (DEG/KT/KT) (MB)    (MI)  (FT/S)
SOUTHERN BUOY              54 49  170/ 14/ 14 1012.9          1/ 3
WILMETTE HARBOR            62 56  200/  6/  8   N/A           1
HARRISON CRIB              71     210/ 10/ 14   N/A
BURNHAM HARBOR             74     220/  5/ 12   N/A
CALUMET HARBOR             72     200/  9/ 12 1013.2R
BURNS HARBOR               72     210/ 12/ 15 1014.2S
MICHIGAN CITY              72     170/ 10/ 12   N/A
MICHIGAN CITY 6N           65 57  200/  6/  8   N/A           1
ST. JOSEPH                 63 59  200/  6/  8   N/A           1
$$

ILZ025>027-034>036-040-047-049-050-058-095>099-261600-
WEST-CENTRAL ILLINOIS

CITY           SKY/WX    TMP DP  RH WIND       PRES   REMARKS
QUINCY         CLOUDY    71  64  78 SE9       29.95R
MACOMB*        CLOUDY    70  67  89 S6        29.97R
PITTSFIELD*    CLOUDY    70  67  91 SE10      29.97R
$$

ILZ028>032-037-038-041>044-048-051>054-059>061-261600-
CENTRAL ILLINOIS

CITY           SKY/WX    TMP DP  RH WIND       PRES   REMARKS
BLOOMINGTON    CLOUDY    67  67 100 S12       29.96S
DECATUR        TSTM      66  63  90 SE8       30.01F FOG
PEORIA         CLOUDY    68  64  87 S13       29.95R
SPRINGFIELD    LGT RAIN  67  64  90 SE14      29.95F
TAYLORVILLE    NOT AVBL
$$

ILZ033-039-045-046-055>057-062-063-261600-
EAST-CENTRAL ILLINOIS

CITY           SKY/WX    TMP DP  RH WIND       PRES   REMARKS
CHAMPAIGN      RAIN      64  62  93 SW9       30.04R FOG
MATTOON        TSTM      65  62  90 W8        30.08S FOG
$$

ILZ079-100>102-261600-
SOUTHWEST ILLINOIS

CITY           SKY/WX    TMP DP  RH WIND       PRES   REMARKS
ALTON          CLOUDY    66  63  88 E12       29.91F
BELLEVILLE     LGT RAIN  66  66 100 E12       29.96F
CAHOKIA*       CLOUDY    67  64  90 S8        29.95F
SPARTA*        CLOUDY    65  64  96 E12       30.02F
$$

ILZ064>066-069>071-074>076-080>082-084>086-088>090-092>094-261600-
SOUTH-CENTRAL ILLINOIS

CITY           SKY/WX    TMP DP  RH WIND       PRES   REMARKS
CARBONDALE     TSTM      69  64  84 NW9G25    30.10R
MARION         CLOUDY    75  70  83 NW16      30.06R THUNDER
MT. VERNON     CLOUDY    66  61  82 CALM      30.08F
SALEM*         TSTM      69  64  85 N6        30.07F
$$

ILZ067-068-072-073-078-083-087-091-261600-
SOUTHEAST ILLINOIS

CITY           SKY/WX    TMP DP  RH WIND       PRES   REMARKS
LAWRENCEVILLE  PTSUNNY   77  67  71 SW16      30.02S
FLORA*         TSTM      67  65  91 NW8       30.08R
HARRISBURG*    CLOUDY    77  71  82 W15       30.05R
ROBINSON*      PTSUNNY   74  66  76 SW13      30.04R
$$

ABBREVIATIONS USED IN REMARKS
   TC - TEMPERATURE IN CELSIUS
  WCI - WIND CHILL INDEX
   HX - HEAT INDEX
  VSB - VISIBILITY
$$




USA.gov is the U.S. government's official web portal to all federal, state and local government web resources and services.